Regional Weather Roundup
Issued by NWS

Home | Current Version | Previous Version | Graphics & Text | Print | Product List | Glossary On
Versions: 1 2 3 4 5 6 7 8 9 10 11 12 13 14 15 16 17 18 19 20 21 22 23 24 25 26 27 28 29 30 31 32 33 34 35 36 37 38 39 40 41 42 43 44 45 46 47 48 49 50
000
ASUS43 KMKX 271659
RWRWI

WISCONSIN REGIONAL WEATHER ROUNDUP
NATIONAL WEATHER SERVICE MILWAUKEE/SULLIVAN WI
1100 AM CST TUE JAN 27 2015

NOTE: "FAIR" INDICATES FEW OR NO CLOUDS BELOW 12,000 FEET WITH NO
SIGNIFICANT WEATHER AND/OR OBSTRUCTIONS TO VISIBILITY.

WIZ001-002-006>008-014>016-023>028-271800-
NORTHWEST WISCONSIN

CITY           SKY/WX    TMP DP  RH WIND       PRES   REMARKS
SUPERIOR ARPT  CLOUDY    29  23  79 CALM      30.18R
ASHLAND        CLOUDY    28  22  78 CALM      30.18R
HAYWARD        CLOUDY    26  20  77 E3        30.16R
SIREN          CLOUDY    29  23  78 CALM      30.17R
CUMBERLAND     CLOUDY    28  21  74 E3        30.16R
RICE LAKE      CLOUDY    29  22  76 CALM      30.18R
CHETEK         CLOUDY    28  22  76 CALM      30.17R
LADYSMITH      CLOUDY    28  22  81 CALM      30.18R
EAU CLAIRE     CLOUDY    29  19  66 NE6       30.18R WCI  23
MENOMONIE      CLOUDY    29  24  82 SE5       30.18S WCI  24
NEW RICHMOND   CLOUDY    30  23  75 SE3       30.18R
OSCEOLA        CLOUDY    31  24  74 SE3       30.20R
$$

WIZ003>005-009-010-017-018-271800-
NORTH CENTRAL WISCONSIN

CITY           SKY/WX    TMP DP  RH WIND       PRES   REMARKS
MANITOWISH WTR CLOUDY    21  20  97 S5        30.13R WCI  14
ARBOR VITAE    CLOUDY    22  20  91 S3        30.14R
WOODRUFF       CLOUDY    22  20  91 S3        30.14R
RHINELANDER    CLOUDY    21  19  92 S3        30.15R
EAGLE RIVER    CLOUDY    22  17  80 CALM      30.14R
LAND O LAKES   CLOUDY    22  18  83 S6        30.15R WCI  15
PHILLIPS       CLOUDY    22  20  92 SE3       30.14R FOG
TOMAHAWK       CLOUDY    23  20  89 CALM      30.16R
MEDFORD        CLOUDY    23  21  93 E3        30.15R FOG
MERRILL        CLOUDY    23  21  92 S5        30.17R FOG     WCI  17
$$

WIZ029-030-035-036-043>047-271800-
CENTRAL WISCONSIN

CITY           SKY/WX    TMP DP  RH WIND       PRES   REMARKS
WAUSAU         CLOUDY    23  20  88 SE5       30.16R FOG     WCI  17
MOSINEE        CLOUDY    21  21 100 E3        30.18R
MARSHFIELD     CLOUDY    24  21  88 E5        30.17R FOG     WCI  18
STEVENS POINT  LGT SNOW  21  19  92 SE5       30.19R WCI  15
WAUPACA        CLOUDY    27  21  76 E5        30.20R WCI  22
WAUTOMA        NOT AVBL
WISC RAPIDS    CLOUDY    24  20  84 E6        30.19F FOG     WCI  17
CAMP DOUGLAS   NOT AVBL
$$

WIZ011>013-019>022-031-037>040-048>050-271800-
NORTHEAST WISCONSIN

CITY           SKY/WX    TMP DP  RH WIND       PRES   REMARKS
ANTIGO         FLURRIES  21  19  92 SE5       30.16R WCI  14
SHAWANO        CLOUDY    27  19  70 E5        30.21R WCI  22
OCONTO         CLOUDY    26  15  65 E6        30.22R WCI  19
STURGEON BAY   CLOUDY    23  18  80 N6        30.23R WCI  16
GREEN BAY      CLOUDY    26  17  68 NE7       30.22R WCI  18
MANITOWOC      NOT AVBL
APPLETON       CLOUDY    25  16  68 NE8       30.20R WCI  16
CLINTONVILLE   CLOUDY    27  18  69 E3        30.21R
OSHKOSH        CLOUDY    26  16  65 NE6       30.20R WCI  19
$$

WIZ032>034-041-042-053>061-271800-
SOUTHWEST WISCONSIN

CITY           SKY/WX    TMP DP  RH WIND       PRES   REMARKS
LA CROSSE      CLOUDY    31  21  66 VRB3      30.20R
SPARTA         CLOUDY    28  23  83 CALM      30.20R
VIROQUA        CLOUDY    26  23  86 NE5       30.17R WCI  21
BOSCOBEL       CLOUDY    29  21  72 CALM      30.21R
PRAIRIE DU CHI CLOUDY    30  20  67 N5        30.21R WCI  25
PLATTEVILLE    CLOUDY    27  23  84 N8        30.17R WCI  19
$$

WIZ056-057-062-063-064-067-068-271800-
SOUTH CENTRAL WISCONSIN

CITY           SKY/WX    TMP DP  RH WIND       PRES   REMARKS
REEDSBURG      CLOUDY    26  22  88 NE3       30.17R
BARABOO/DELLS  CLOUDY    25  23  91 NE3       30.17R FOG
LONE ROCK      NOT AVBL
MINERAL POINT  CLOUDY    28  23  80 E6        30.16R WCI  22
MADISON        FOG       27  24  89 NE5       30.17S VSB 1   WCI  22
MIDDLETON      CLOUDY    28  27  96 NE6       30.17R VSB 1   WCI  21
WATERTOWN      CLOUDY    26  22  83 E9        30.17R WCI  17
MONROE         CLOUDY    27  27 100 NE8       30.14R FOG     WCI  18
JANESVILLE     CLOUDY    30  27  86 E7        30.17R FOG     WCI  23
$$

WIZ051-052-058>065-066-070>072-271800-
SOUTHEAST WISCONSIN

CITY           SKY/WX    TMP DP  RH WIND       PRES   REMARKS
MILWAUKEE      MOSUNNY   29  15  56 NE12      30.18R WCI  19
WAUKESHA       PTSUNNY   27  18  69 E9        30.18R WCI  17
MILWAUKEE/TIMM MOSUNNY   28  16  59 NE8       30.19R WCI  20
RACINE         SUNNY     30  16  56 NE9       30.19R WCI  22
BURLINGTON     CLOUDY    27  20  73 NE8       30.17R WCI  19
KENOSHA        PTSUNNY   29  20  69 E9        30.17R WCI  20
FOND DU LAC    CLOUDY    26  16  65 E8        30.19R WCI  18
SHEBOYGAN      CLOUDY    27  17  66 NE8       30.20R WCI  19
WEST BEND      CLOUDY    28  16  59 NE7       30.18R WCI  21
JUNEAU         CLOUDY    26  19  76 NE8       30.19R WCI  17
$$

LSZ147-162-271800-
LAKE SUPERIOR

STATION/POSITION TIME  TEMP    WIND        PRES    WAVE
                       AIR SEA DIR/SP/G            HT/PER
                 (UTC) (F)     (DEG/KT/KT) (MB)    (FT/S)
DEVILS ISLAND    1600   29     200/  2/  3 1022.3R
PORT WING        1640   29     300/  2/  3 1022.0R
SAXON HARBOR     1600   27        CALM     1021.3R
$$

LMZ867-665-643>646-271800-
LAKE MICHIGAN

STATION/POSITION TIME  TEMP    WIND        PRES    WAVE
                       AIR SEA DIR/SP/G            HT/PER
                 (UTC) (F)     (DEG/KT/KT) (MB)    (FT/S)
NORTHPORT PIER   1626   25      70/  7/ 12 1023.4R
SISTER BAY       1613   24      10/ 10/ 11   N/A
KEWAUNEE LAKESHO 1600   26      80/  8/ 12 1021.4R
SHEBOYGAN LAKESH 1600   26      60/ 11/ 13 1023.5R
PORT WASHINGTON  1640   29      60/  7/ 11 1023.4R
MILWAUKEE LAKESH 1600   28      60/ 10/ 11   N/A
KENOSHA   LAKESH 1600   28      50/ 10/ 13 1021.3R
$$

TC  - TEMPERATURE IN CELSIUS
VSB - VISIBILITY IN STATUTE MILES
WCI - WIND CHILL INDEX
HX  - HEAT INDEX



USA.gov is the U.S. government's official web portal to all federal, state and local government web resources and services.